www.pogodaiklimat.ru

Погода и климат >> Архив погоды >> Австралия >> Западная Австралия >> Калумбуру


ПОГОДА в Калумбуру

  • Прогноз погоды в Калумбуру
  • Монитор погоды в Калумбуру

АРХИВ ПОГОДЫ в Калумбуру

Время (UTC), дата Ветер
(напр.,м/с)
 
Видим.   Явления Облачность Т
(С)
Тd
(С)
f
(%)
Тe
(С)
Тes
(С)
Комфортность P
(гПа)
Po
(гПа)
Тmin
(С)
Tmax
(С)
R
(мм)
R24
(мм)
S
(см)
13 14.07 ЮВ 2 н/о н/о +21.4 +1.7 27 +21 +21 комфорт 1017.3 1014.5 +31.3
15 14.07 З 2 н/о н/о +19.1 +2.5 33 +20 +20 1017.3 1014.5
16 14.07 ЮВ 2 н/о н/о +20.2 +2.1 30 +21 +21 комфорт 1017.4 1014.6
18 14.07 ЮВ 3 н/о н/о +20.1 +1.0 28 +21 +21 комфорт 1016.7 1013.9
19 14.07 ЮВ 3 н/о н/о +19.7 +0.2 27 +20 +20 1016.8 1014.0
21 14.07 Ю 2 н/о н/о +17.6 +0.3 31 +18 +18 1017.4 1014.6
22 14.07 Ю 2 н/о н/о +17.5 -0.7 29 +18 +18 1018.0 1015.2
00 15.07 ЮВ 3 н/о н/о +22.3 -1.7 20 +21 +21 комфорт 1018.6 1015.8
01 15.07 ЮВ 5 н/о н/о +24.1 -0.2 20 +23 +23 комфорт 1018.5 1015.7 +17.1
03 15.07 ЮВ 5 н/о н/о +27.1 0.0 17 +25 +25 комфорт 1017.2 1014.4
04 15.07 В 5 н/о н/о +27.6 -0.5 16 +25 +25 комфорт 1015.7 1012.9
06 15.07 ЮВ 3 н/о н/о +28.7 -0.5 15 +26 +26 жарко 1013.2 1010.4
07 15.07 В 3 н/о н/о +29.1 +0.7 16 +27 +27 жарко 1012.7 1009.9
09 15.07 ЮВ 2 н/о н/о +25.1 +0.6 20 +24 +24 комфорт 1013.5 1010.7
10 15.07 В 2 н/о н/о +21.1 +1.9 28 +21 +21 комфорт 1014.4 1011.6
12 15.07 ЮВ 3 н/о н/о +21.4 +1.7 27 +21 +21 комфорт 1016.2 1013.4
13 15.07 ЮВ 3 н/о н/о +21.5 +0.1 24 +21 +21 комфорт 1016.7 1013.9 +29.8
15 15.07 ЮВ 2 н/о н/о +20.5 -0.2 25 +21 +21 комфорт 1017.0 1014.2
16 15.07 Ю 2 н/о н/о +20.0 -0.1 26 +21 +21 комфорт 1017.0 1014.2
18 15.07 ЮЗ 2 н/о н/о +18.4 -0.4 28 +19 +19 1016.0 1013.2
19 15.07 ЮЗ 2 н/о н/о +19.3 -1.2 25 +20 +20 1015.9 1013.1
21 15.07 Ю 2 н/о н/о +19.3 -2.9 22 +20 +20 1016.0 1013.2
22 15.07 Ю 2 н/о н/о +19.0 -4.4 20 +19 +19 1016.6 1013.8
00 16.07 ЮВ 3 н/о н/о +23.3 -4.8 15 +21 +21 комфорт 1017.8 1015.0
01 16.07 В 6 н/о н/о +25.0 -4.3 14 +23 +23 комфорт 1018.0 1015.2 +18.2
03 16.07 В 4 н/о н/о +28.6 -2.5 13 +26 +26 жарко 1016.3 1013.5
04 16.07 В 4 н/о н/о +29.7 -1.6 13 +27 +27 жарко 1015.3 1012.5
06 16.07 ЮВ 3 н/о н/о +30.3 -1.2 13 +27 +27 жарко 1013.6 1010.8
07 16.07 В 3 н/о н/о +30.2 -1.2 13 +27 +27 жарко 1013.1 1010.3
09 16.07 ЮВ 2 н/о н/о +26.8 -1.1 16 +25 +25 комфорт 1013.6 1010.8
10 16.07 штиль 0 н/о н/о +22.5 +0.4 23 +22 +22 комфорт 1014.2 1011.4
12 16.07 В 3 н/о н/о +23.0 -0.5 21 +22 +22 комфорт 1015.5 1012.7
13 16.07 ЮВ 3 н/о н/о +23.4 -2.2 18 +22 +22 комфорт 1015.9 1013.1 +30.9
15 16.07 ЮВ 2 н/о н/о +21.7 -2.9 19 +21 +21 комфорт 1015.9 1013.1
16 16.07 ЮВ 3 н/о н/о +19.7 -0.3 26 +20 +20 1015.7 1012.9
18 16.07 Ю 2 н/о н/о +17.7 +0.4 31 +18 +18 1015.0 1012.2
19 16.07 ЮЗ 2 н/о н/о +17.7 +0.4 31 +18 +18 1014.9 1012.1
21 16.07 ЮВ 2 н/о н/о +19.6 -2.1 23 +20 +20 1015.1 1012.3
22 16.07 ЮВ 3 н/о н/о +19.9 -2.4 22 +20 +20 1015.5 1012.7
00 17.07 ЮВ 4 н/о н/о +24.3 -2.3 17 +23 +23 комфорт 1016.6 1013.8
01 17.07 В 4 н/о н/о +26.1 -2.5 15 +24 +24 комфорт 1016.4 1013.6 +15.9
03 17.07 В 5 н/о н/о +29.0 -1.2 14 +26 +26 жарко 1015.3 1012.5
04 17.07 В 5 н/о н/о +30.4 -1.1 13 +27 +27 жарко 1014.0 1011.2
06 17.07 ЮВ 4 н/о н/о +31.0 -0.6 13 +28 +28 жарко 1012.0 1009.2
07 17.07 ЮВ 3 н/о н/о +31.1 -1.6 12 +28 +28 жарко 1011.7 1008.9
09 17.07 В 2 н/о н/о +28.0 -1.0 15 +25 +25 комфорт 1012.3 1009.5
10 17.07 В 2 н/о н/о +23.2 +1.5 24 +22 +22 комфорт 1012.9 1010.1
12 17.07 СВ 2 н/о н/о +22.4 +2.0 26 +22 +22 комфорт 1014.2 1011.4
13 17.07 штиль 0 н/о н/о +19.6 +2.5 32 +20 +20 1014.5 1011.7 +31.7
15 17.07 ЮЗ 1 н/о н/о +17.8 +4.0 40 +19 +19 1014.5 1011.7
16 17.07 штиль 0 н/о н/о +17.3 +3.6 40 +17 +17 1014.4 1011.6
18 17.07 штиль 0 н/о н/о +15.1 +3.6 46 +15 +15 1013.9 1011.1
19 17.07 штиль 0 н/о н/о +14.4 +3.5 48 +14 +14 1013.8 1011.0
21 17.07 Ю 2 н/о н/о +18.4 +1.9 33 +19 +19 1014.1 1011.3
22 17.07 Ю 3 н/о н/о +20.2 +1.1 28 +21 +21 комфорт 1014.5 1011.7
00 18.07 ЮВ 4 н/о н/о +25.4 +0.1 19 +24 +24 комфорт 1015.6 1012.8
01 18.07 В 4 н/о н/о +28.4 +0.2 16 +26 +26 жарко 1015.5 1012.7 +13.9
03 18.07 В 5 н/о н/о +30.7 -0.8 13 +28 +28 жарко 1014.4 1011.6
04 18.07 В 4 н/о н/о +31.6 -0.1 13 +28 +28 жарко 1013.4 1010.6
06 18.07 В 4 н/о н/о +32.5 -1.7 11 +29 +29 жарко 1011.9 1009.1
07 18.07 В 3 н/о н/о +32.2 -0.8 12 +29 +29 жарко 1011.5 1008.7
09 18.07 СВ 3 н/о н/о +28.5 -0.6 15 +26 +26 жарко 1012.2 1009.4
10 18.07 В 3 н/о н/о +26.5 -1.3 16 +24 +24 комфорт 1012.8 1010.0
12 18.07 С 1 н/о н/о +21.3 +1.0 26 +21 +21 комфорт 1014.2 1011.4
13 18.07 штиль 0 н/о н/о +18.8 +3.0 35 +19 +19 1014.3 1011.5 +33.4
15 18.07 ЮЗ 2 н/о н/о +18.1 +3.2 37 +19 +19 1014.3 1011.5
16 18.07 штиль 0 н/о н/о +14.6 +3.7 48 +15 +15 1014.3 1011.5
18 18.07 Ю 1 н/о н/о +12.7 +4.2 56 +14 +14 1014.0 1011.2
19 18.07 штиль 0 н/о н/о +12.5 +5.2 61 +12 +12 1013.9 1011.1
21 18.07 Ю 1 н/о н/о +13.8 +5.2 56 +14 +14 1013.7 1010.9
22 18.07 Ю 2 н/о н/о +14.5 +5.6 55 +14 +14 1014.0 1011.2
00 19.07 ЮЗ 1 н/о н/о +21.2 +4.3 33 +21 +21 комфорт 1015.2 1012.4
01 19.07 З 2 н/о н/о +26.9 +3.4 22 +26 +26 жарко 1015.2 1012.4 +11.4
03 19.07 В 4 н/о н/о +32.1 +1.3 14 +29 +29 жарко 1014.0 1011.2
04 19.07 В 4 н/о н/о +33.0 +0.9 13 +30 +30 жарко 1013.0 1010.2
06 19.07 СЗ 4 н/о н/о +31.0 +6.8 22 +30 +30 жарко 1011.6 1008.8
07 19.07 С 4 н/о н/о +32.7 +0.7 13 +30 +30 жарко 1011.5 1008.7
09 19.07 З 3 н/о н/о +25.4 +14.5 51 +28 +28 жарко 1012.2 1009.4
10 19.07 СЗ 2 н/о н/о +21.3 +14.7 66 +24 +24 комфорт 1012.9 1010.1
12 19.07 штиль 0 н/о н/о +17.3 +14.8 85 +17 +17 1014.4 1011.6
13 19.07 штиль 0 н/о н/о +16.8 +14.8 88 +17 +17 1014.9 1012.1 +34.2
15 19.07 штиль 0 н/о н/о +14.7 +12.9 89 +14 +14 1015.0 1012.2
16 19.07 Ю 1 н/о н/о +13.6 +11.7 88 +15 +15 1015.1 1012.3
18 19.07 штиль 0 н/о н/о +12.8 +11.2 90 +12 +12 1014.7 1011.9
19 19.07 штиль 0 н/о н/о +11.9 +10.3 90 +11 +11 1014.4 1011.6
21 19.07 штиль 0 н/о н/о +12.5 +10.9 90 +12 +12 1014.6 1011.8
22 19.07 штиль 0 н/о н/о +12.2 +10.6 90 +12 +12 1014.9 1012.1
00 20.07 С 2 н/о н/о +20.4 +13.1 63 +23 +23 комфорт 1015.0 1012.2
01 20.07 Ю 3 н/о н/о +25.4 +12.3 44 +27 +27 жарко 1015.5 1012.7 +12.0
03 20.07 СЗ 2 н/о н/о +30.8 +7.9 24 +30 +30 жарко 1014.1 1011.3
04 20.07 СВ 5 н/о н/о +32.9 +3.8 16 +30 +30 жарко 1012.9 1010.1
06 20.07 С 5 н/о н/о +32.2 +8.4 23 +31 +31 жарко 1011.3 1008.5
07 20.07 С 5 н/о н/о +30.9 +8.0 24 +30 +30 жарко 1011.2 1008.4
09 20.07 С 5 н/о н/о +25.9 +12.0 42 +27 +27 жарко 1012.3 1009.5
10 20.07 С 3 н/о н/о +24.2 +14.3 54 +27 +27 жарко 1012.8 1010.0
12 20.07 штиль 0 н/о н/о +20.7 +15.9 74 +24 +24 комфорт 1014.0 1011.2
13 20.07 штиль 0 н/о н/о +18.8 +15.9 83 +20 +20 1014.5 1011.7 +34.1
15 20.07 штиль 0 н/о н/о +16.6 +14.6 88 +16 +16 1014.5 1011.7
16 20.07 штиль 0 н/о н/о +15.8 +14.2 90 +16 +16 1014.2 1011.4
18 20.07 штиль 0 н/о н/о +14.6 +13.0 90 +14 +14 1013.3 1010.5
19 20.07 Ю 1 н/о н/о +13.3 +11.7 90 +14 +14 1013.0 1010.2
21 20.07 штиль 0 н/о н/о +13.0 +11.6 91 +12 +12 1013.5 1010.7
22 20.07 штиль 0 н/о н/о +12.8 +11.4 91 +12 +12 1014.1 1011.3
00 21.07 Ю 1 н/о н/о +21.2 +15.7 71 +24 +24 комфорт 1014.7 1011.9
01 21.07 Ю 2 н/о н/о +25.5 +17.2 60 +29 +29 душно 1014.7 1011.9 +12.6
03 21.07 СЗ 4 н/о н/о +29.5 +16.7 46 +33 +33 душно 1013.4 1010.6
04 21.07 СЗ 4 н/о н/о +30.7 +15.9 41 +34 +34 очень
душно
1012.2 1009.4
06 21.07 С 4 н/о н/о +31.4 +11.2 29 +32 +32 жарко 1010.4 1007.6
07 21.07 СЗ 3 н/о н/о +31.8 +11.0 28 +32 +32 жарко 1010.0 1007.2
09 21.07 С 5 н/о н/о +26.3 +13.4 45 +28 +28 жарко 1010.7 1007.9
10 21.07 С 4 н/о н/о +24.6 +16.6 61 +28 +28 душно 1011.5 1008.7
12 21.07 С 1 н/о н/о +21.6 +18.2 81 +26 +26 душно 1012.8 1010.0

 

Местоположение метеостанции Калумбуру (Западная Австралия, Австралия): широта -14.30 долгота 126.65 высота над уровнем моря 24 м.

В архиве по умолчанию представлена погода в Калумбуру за последнюю неделю. Архивные данные за месяц целиком и за предыдущие месяцы, начиная с января 2011 года, Вы можете получить, выбрав интересующий диапазон дат из раскрывающегося списка и нажав кнопку "Ввод!".


*Определитесь, кто Вы:
робот инопланетянин человек

Внимание! Время в таблицах - всемирное. Для получения местного времени необходимо прибавить поправку, которая равна 8 ч.

Смотрите также архив погоды в соседних городах и на ближайших метеорологических станциях:

Погода в Трускотте (Западная Австралия, Австралия) (38 км)
Погода на Острове Троутон (Западная Австралия, Австралия) (82 км)
Погода в Уиндеме (Западная Австралия, Австралия) (209 км)
Погода в Кунунарре (Западная Австралия, Австралия) (276 км)
Погода в Порт Китс (Северная территория, Австралия) (310 км)
Погода в Аэропорту Аргайл (Западная Австралия, Австралия) (323 км)
Погода на Острове Брауз (Западная Австралия, Австралия) (335 км)
Погода на Острове Адель (Западная Австралия, Австралия) (400 км)
Погода на Острове Дам-ин-Мирре (Северная территория, Австралия) (443 км)
Погода в Фицрой-Кроссинге (Западная Австралия, Австралия) (447 км)

Пояснения к столбцам:

Ветер - указаны скорость ветра в м/с - средняя за 10 мин, порывы в срок и между сроками (в фигурных скобках) и направление, откуда дует ветер: С - северный, СВ - северо-восточный, В - восточный, ЮВ - юго-восточный, Ю - южный, ЮЗ - юго-западный, З - западный, СЗ - северо-западный.
Видимость - горизонтальная дальность видимости в метрах или километрах. При видимости от 1 до 10 км при отсутствии осадков обычно наблюдается дымка, при ухудшении видимости до 1 км и менее - туман. В сухую погоду видимость может ухудшаться дымом, пылью или мглою.
Явления - указаны атмосферные явления, наблюдавшиеся в срок или в последний час перед сроком; фигурными скобками обозначены явления, наблюдавшиеся между сроками (за 1-3 часа до срока); квадратными скобками обозначены град или гололедные отложения с указанием их диаметра в мм.
Облачность - указаны через наклонную черту общая и нижняя облачность в баллах и высота нижней границы облаков в метрах; квадратными скобками обозначены формы облаков: Ci - перистые, Cs - перисто-слоистые, Cc - перисто-кучевые, Ac - высококучевые, As - высокослоистые, Sc - слоисто-кучевые, Ns - слоисто-дождевые, Cu - кучевые, Cb - кучево-дождевые. Подробнее классификацию облаков см. в Атласе облаков (PDF).
T - Температура воздуха - температура, измеренная на высоте 2 м над землей.
Td - Температура точки росы - температура, при понижении до которой содержащийся в воздухе водяной пар достигнет насыщения.
f - Относительная влажность воздуха - влажноcть воздуха, измеренная на высоте 2 м над землей.
Te - Эффективная температура - температура, которую ощущает одетый по сезону человек в тени. Характеристика душности погоды. При расчете учитывается влияние влажности воздуха и скорости ветра на теплоощущения человека.
Tes - Эффективная температура на солнце - температура, которую ощущает человек, с поправкой на солнечный нагрев. Характеристика знойности погоды. Зависит от высоты солнца над горизонтом, облачности и скорости ветра. Ночью, в пасмурную погоду, а также при ветре 12 м/с и более поправка равна нулю.
P - Атмосферное давление - приведенное к уровню моря атмосферное давление.
Po - Атмосферное давление - измеренное на уровне метеостанции атмосферное давление.
Tmin - Минимальная температура - минимум температуры воздуха на высоте 2 м над землей.
Tmax - Максимальная температура - максимум температуры воздуха на высоте 2 м над землей.
R - Количество осадков - Количество выпавших осадков за период времени, мм. При наведении курсора мыши на число - период времени, за который выпало указанное количество осадков.
R24 - Количество осадков - Количество выпавших осадков за 24 часа, мм.
S - Снежный покров - Высота снежного покрова, см. При наведении курсора мыши на число - состояние снежного покрова и степень покрытия местности в баллах.